Wind_Speed
20 20 19 19 19 18 16 14 13 13 12 13 14 16 17 17 17 17 16 16 15 16 17 17 18 18 18 18 18 18 17 17 17 17 17 18 18 19 20 20 20 20 21 22 23 23 24 24 25 25 26 27 28 28 28 30 31 31 31 30 30 29 28 29 29 30 30 32 33 34 35 36 36 37 38 38 39 40 41 41 42 42 43 44 44
20 20 19 20 20 19 17 15 14 13 13 13 14 15 17 18 18 18 17 17 17 18 19 19 19 18 18 17 17 16 16 16 17 17 17 19 19 20 21 21 21 21 22 23 24 25 25 26 26 26 26 28 29 29 29 30 31 32 31 30 30 29 28 29 29 30 31 32 33 34 36 37 37 38 38 39 39 40 41 42 42 43 43 44 45
21 20 20 20 20 19 17 16 15 14 13 12 14 16 17 18 19 18 18 18 18 19 20 19 18 17 16 16 16 16 16 16 17 17 18 20 20 21 23 23 23 23 24 25 25 26 27 27 26 26 27 29 30 30 31 31 32 32 31 31 30 29 29 29 29 30 31 32 33 34 36 37 38 38 39 40 40 41 42 42 43 43 44 45 45
22 20 20 21 21 19 18 17 16 14 12 12 14 16 17 18 19 19 19 19 18 19 19 17 16 15 15 15 15 15 16 16 17 18 19 20 21 23 24 25 25 25 25 26 27 28 28 28 27 27 28 30 31 31 31 32 33 33 32 31 31 30 29 29 30 31 32 32 33 34 36 37 38 39 40 40 41 42 42 43 43 44 44 44 44
22 20 21 21 21 19 18 17 16 14 12 12 14 16 17 18 19 19 19 18 17 17 17 15 14 14 14 14 15 16 17 17 18 19 20 21 22 24 25 26 26 27 27 28 29 29 29 29 29 29 29 31 32 32 32 33 33 33 33 32 31 30 30 30 31 31 32 32 33 35 36 38 40 40 40 41 41 42 42 43 43 44 44 44 44
22 21 21 21 20 19 18 17 16 14 12 12 14 17 18 18 19 19 19 18 18 17 15 13 13 13 14 15 15 16 18 18 19 20 21 22 23 25 26 27 28 28 29 30 30 31 31 31 31 30 30 32 33 33 33 33 34 34 34 33 32 31 31 31 32 32 33 33 34 36 38 40 41 41 42 42 42 42 42 43 43 43 43 43 43
22 21 21 20 19 18 18 17 16 14 12 13 15 17 18 18 18 19 19 19 18 16 13 12 12 13 14 15 16 18 19 19 20 22 22 23 24 25 26 28 29 30 31 31 32 32 32 33 33 32 32 33 33 34 34 34 35 35 35 34 33 32 32 32 32 34 34 35 35 37 39 42 43 43 43 43 44 43 43 42 42 41 43 44 44
22 22 21 20 19 18 17 17 15 13 13 13 15 17 19 19 19 19 19 18 16 14 12 12 13 14 15 16 17 19 20 21 22 23 24 24 25 26 27 28 30 31 32 33 34 34 35 35 34 34 34 34 34 35 35 35 35 36 36 36 35 34 33 33 34 35 36 37 37 37 40 43 45 44 44 44 44 44 43 43 42 42 43 45 44
23 22 21 20 19 18 17 15 14 14 13 14 16 18 19 18 18 18 17 16 15 13 13 13 14 15 16 17 19 21 22 23 24 25 25 26 26 27 28 29 30 32 33 35 35 36 37 36 35 35 36 36 35 35 35 36 36 36 37 37 37 35 34 34 35 36 37 38 38 39 41 44 45 45 45 44 43 43 44 43 43 42 42 43 43
23 23 22 21 20 19 16 15 14 14 14 15 17 19 18 17 18 18 17 16 15 14 14 15 16 17 18 19 21 23 24 25 26 27 28 28 29 30 30 30 32 33 35 36 36 37 38 37 37 37 38 37 37 37 37 37 37 37 38 38 38 37 36 36 36 37 38 39 40 40 42 44 45 46 46 45 44 44 44 43 41 41 41 42 41
24 23 23 23 21 19 16 15 14 14 15 16 18 19 17 17 17 17 17 16 16 15 15 17 18 19 19 21 22 24 26 26 27 29 30 30 31 32 32 32 34 35 36 37 38 39 39 38 38 39 39 39 39 38 38 38 38 38 38 39 39 38 37 37 37 38 39 40 41 41 42 44 46 47 48 47 46 45 44 43 41 40 42 43 41
25 24 24 23 21 19 17 16 15 15 16 17 18 18 16 16 17 18 18 18 17 17 17 18 20 21 21 22 24 25 28 28 29 31 32 33 34 35 35 35 36 37 38 39 39 39 38 38 38 40 41 41 40 39 39 39 38 38 39 39 39 39 39 38 38 39 40 41 41 42 44 45 46 48 49 49 47 45 43 42 40 40 42 43 40
25 24 23 22 21 19 17 16 16 17 18 18 18 17 16 16 17 18 19 19 19 19 20 21 22 22 23 23 25 27 29 30 30 32 33 34 36 36 37 38 39 40 40 41 41 39 37 37 38 40 42 44 42 40 39 39 38 38 39 39 40 40 40 39 39 40 41 41 42 43 45 46 47 49 51 49 47 44 43 41 39 39 41 41 40
24 23 22 21 19 18 17 16 17 18 19 18 18 18 17 17 18 19 20 20 20 21 22 23 24 24 25 25 25 27 29 30 30 31 33 34 35 37 38 39 41 42 43 44 44 40 36 35 37 39 41 44 46 43 39 38 37 38 39 39 40 40 40 40 39 40 41 42 43 44 45 47 49 51 50 48 45 44 42 40 39 39 40 40 39
23 21 20 19 18 18 17 17 18 19 19 18 18 18 18 19 19 20 21 21 22 23 24 25 25 25 26 25 26 27 29 30 30 30 31 32 34 37 38 37 37 37 39 43 45 43 38 35 38 40 40 44 47 43 38 37 37 38 40 40 40 39 39 40 40 41 42 42 44 45 47 49 51 49 47 45 44 43 41 40 39 38 38 37 36
22 20 19 19 19 19 19 18 19 19 19 19 20 20 20 21 21 21 22 23 24 25 26 26 26 26 26 25 26 27 29 29 29 30 32 33 33 33 32 30 31 34 37 41 43 43 39 36 39 40 41 46 45 37 34 36 37 38 39 39 38 38 39 40 41 42 43 44 46 46 48 49 48 45 43 42 42 41 40 39 38 37 35 34 35
22 21 20 20 22 22 22 21 21 20 20 21 22 22 22 22 23 23 24 25 26 26 26 26 26 26 26 25 26 27 28 29 30 31 31 31 31 30 29 28 29 32 36 37 38 38 36 35 39 41 44 46 41 34 34 37 37 37 38 38 37 39 40 40 41 42 43 44 44 44 46 46 45 43 42 41 39 39 39 38 37 36 35 34 34
23 21 22 23 25 26 25 24 23 23 23 24 24 24 24 24 24 25 26 26 27 27 27 27 27 27 26 27 28 27 26 28 31 31 30 29 30 30 30 30 30 30 31 31 31 31 32 34 38 41 43 42 36 34 37 37 37 39 39 39 39 39 40 40 40 40 41 41 41 42 43 44 43 43 42 39 38 37 38 37 37 36 35 34 34
23 23 24 26 27 27 27 27 27 26 25 26 26 26 26 26 26 26 27 27 27 28 28 29 28 28 28 28 27 26 25 28 31 32 32 33 32 31 31 31 31 30 29 28 27 28 30 33 36 39 41 37 33 34 37 37 38 39 39 39 40 40 40 40 39 40 39 39 40 42 42 42 43 43 42 39 38 37 37 37 37 36 35 34 34
25 25 26 27 27 27 28 29 28 26 25 26 27 27 27 27 27 27 27 27 28 28 29 29 29 29 28 27 26 26 27 30 33 34 34 34 34 33 33 33 32 31 29 28 28 30 32 34 36 37 37 34 32 33 36 37 39 39 40 40 40 40 41 40 39 39 38 38 40 41 41 42 42 43 41 39 38 37 37 37 37 36 35 35 34
26 26 26 26 26 27 29 29 27 26 26 27 27 27 27 26 26 27 27 27 27 28 28 28 28 28 27 27 27 29 30 33 35 37 36 34 35 35 34 33 33 32 30 29 30 31 33 34 34 34 34 33 33 34 37 38 39 39 40 41 41 41 42 40 39 37 37 38 40 40 41 42 42 42 42 40 39 37 36 35 35 35 35 34 34
27 26 26 26 26 27 29 29 27 27 27 26 26 26 26 26 26 27 27 26 27 27 27 27 27 28 28 30 31 33 34 36 37 37 36 36 36 36 35 34 33 32 31 31 31 33 34 33 33 33 34 35 36 37 38 39 40 40 40 41 42 43 43 41 39 37 36 38 40 40 41 42 42 42 42 41 40 38 35 34 33 34 35 34 34
28 27 27 27 27 27 28 27 26 26 26 26 27 26 26 26 26 26 26 25 26 26 26 27 28 30 32 33 34 35 37 38 37 36 37 38 38 36 35 33 32 32 32 32 32 33 33 33 34 35 36 36 36 37 37 37 37 37 38 39 41 42 42 40 38 36 36 38 41 42 42 42 42 42 42 41 40 38 34 32 32 32 33 33 33
29 29 28 27 26 26 26 25 25 26 26 27 27 27 26 26 26 26 25 25 26 27 28 30 31 33 35 36 36 36 36 36 37 37 37 37 37 35 33 32 32 33 33 33 32 32 32 32 34 34 34 34 34 34 34 33 33 34 35 36 37 38 39 38 36 36 37 40 42 43 43 42 42 42 42 42 41 38 34 31 30 31 32 33 33
29 29 28 26 25 25 25 25 25 26 26 26 26 26 26 26 26 26 26 27 28 30 32 33 34 36 37 37 37 37 35 35 37 38 37 36 35 33 32 33 34 35 34 33 32 31 32 32 31 30 31 32 32 33 34 34 34 34 35 34 33 33 34 34 35 36 38 40 43 45 44 43 42 42 42 42 41 38 34 31 30 30 32 33 33
27 26 25 24 24 24 24 24 25 25 24 25 25 26 27 27 28 29 30 30 32 33 34 35 36 37 38 38 37 36 34 33 33 32 33 34 34 33 34 35 36 34 32 31 32 32 32 32 31 30 32 34 35 36 36 37 37 36 36 35 33 32 33 34 34 35 37 40 43 46 45 43 42 42 42 42 41 37 34 31 29 29 30 31 31
23 22 22 22 22 23 23 24 24 24 24 25 26 27 28 29 31 32 33 34 34 35 36 37 37 38 38 37 36 35 34 33 32 32 35 38 38 37 36 35 34 33 33 33 34 34 33 33 34 35 36 37 38 38 38 39 39 39 39 38 36 35 36 36 35 35 37 41 45 47 46 43 42 41 41 41 40 37 34 31 30 29 29 31 31
21 21 22 22 22 23 24 24 25 25 26 27 29 30 31 32 34 35 36 37 38 38 38 38 38 37 36 35 34 34 33 33 34 35 38 39 38 36 34 33 33 34 35 35 35 35 34 35 36 37 38 38 39 40 40 41 41 41 41 41 40 39 38 37 35 35 38 41 44 46 45 42 41 41 41 40 39 37 34 32 30 29 29 31 32
21 21 22 22 23 24 24 25 26 27 29 30 31 32 33 34 35 36 38 39 39 39 39 38 37 36 35 34 33 33 32 33 35 36 37 37 36 35 34 34 35 36 36 36 36 35 35 35 36 37 38 38 39 40 40 40 40 40 40 39 39 38 37 35 34 36 38 39 39 40 40 40 40 41 41 39 38 37 35 33 31 29 29 31 32
21 21 22 23 24 25 26 27 28 30 31 31 32 33 34 35 35 37 38 38 39 38 37 36 35 34 34 33 33 32 32 33 35 37 37 36 35 35 35 35 36 36 37 37 36 35 35 36 36 37 38 38 38 38 38 38 38 37 37 37 37 36 34 34 35 36 37 36 36 37 38 39 40 41 41 39 37 37 36 33 31 30 29 30 32
21 22 23 23 25 26 27 28 29 30 30 30 31 32 33 34 35 36 37 37 37 37 36 35 33 33 33 33 32 32 33 34 36 37 37 36 35 35 35 36 36 37 37 37 36 36 36 36 36 37 37 37 38 38 38 37 37 36 36 36 36 35 35 35 36 37 36 35 36 36 38 39 40 41 40 39 37 36 36 34 32 30 30 30 31
21 22 24 25 26 27 28 29 30 31 31 31 31 32 33 34 35 36 36 35 35 35 34 33 32 32 32 32 32 33 34 35 36 36 36 35 35 35 35 35 36 37 37 37 36 36 36 36 36 37 37 37 38 38 38 37 37 36 36 36 36 35 35 36 38 37 36 35 35 37 38 40 40 40 40 39 38 37 36 35 33 31 30 30 31
22 24 26 27 28 29 29 30 31 32 33 33 32 32 32 33 34 34 34 33 33 33 33 32 32 32 32 33 33 34 35 36 36 36 35 35 34 34 34 35 35 36 36 36 36 36 36 37 37 37 37 38 38 38 38 37 37 37 37 37 37 37 37 38 37 36 34 34 35 37 38 40 41 40 40 40 39 37 35 35 34 32 30 29 30
24 25 27 29 29 30 31 32 34 35 35 34 34 33 32 33 33 33 33 33 33 33 33 32 32 33 34 34 35 36 36 36 36 36 35 35 34 34 35 36 36 36 36 36 37 37 37 37 38 38 38 38 39 39 39 38 38 38 38 38 38 38 38 37 35 34 34 35 37 38 39 41 42 41 40 40 39 36 35 34 34 33 30 29 29
26 28 29 31 32 33 34 35 36 36 36 35 34 33 32 33 33 33 33 33 33 33 33 33 33 34 34 34 35 35 35 35 35 35 35 36 36 36 37 36 36 36 37 37 37 38 38 38 38 39 39 39 39 40 39 39 38 38 39 39 39 39 38 36 34 34 36 37 39 40 40 41 42 40 38 38 37 35 34 34 34 33 30 29 29
30 31 32 33 34 34 35 36 37 37 37 35 33 32 33 34 34 34 34 33 33 33 33 33 33 33 33 33 33 34 34 34 34 34 35 35 35 36 36 36 36 37 37 38 38 39 39 39 39 40 40 40 40 40 40 40 39 39 40 40 39 39 38 35 34 36 39 39 39 39 40 40 40 37 34 34 34 34 34 34 33 32 30 29 29
32 33 34 35 35 35 35 37 38 37 35 33 32 33 34 34 34 34 34 33 33 33 33 33 33 33 33 33 33 33 33 34 34 35 35 35 35 35 36 36 36 37 38 39 39 40 41 41 41 41 41 41 41 41 41 41 41 40 41 40 40 40 38 35 35 38 40 39 38 38 38 38 36 33 31 30 32 33 33 34 33 31 30 29 29
34 34 34 35 35 34 34 35 35 34 33 33 33 33 33 33 33 34 34 33 33 33 32 32 32 32 33 33 33 33 34 34 35 35 35 35 35 35 36 37 37 38 39 40 40 41 42 42 43 43 43 43 43 43 42 42 41 42 42 41 41 40 38 37 38 39 39 37 37 36 36 35 33 30 28 28 30 31 33 33 32 31 31 30 30
35 35 34 34 33 33 34 34 34 34 34 34 34 34 33 33 34 34 34 34 33 33 33 33 32 32 33 33 32 32 33 34 34 34 35 36 36 36 37 38 39 40 42 43 43 43 44 44 45 45 45 44 44 43 43 42 41 41 41 40 40 40 40 39 40 40 38 38 37 36 35 35 33 30 27 27 29 30 32 32 32 32 32 31 30
34 34 33 33 32 33 33 34 34 34 34 34 34 34 34 34 34 33 33 33 33 33 32 32 33 33 33 33 33 33 33 34 34 35 35 36 37 37 38 40 41 42 43 44 45 45 44 44 44 44 44 43 43 42 41 40 39 38 39 39 40 41 41 41 41 40 39 39 38 37 36 36 34 31 28 27 29 30 31 32 33 33 33 32 32
33 33 33 33 32 32 32 33 33 34 33 33 33 33 33 32 32 33 33 33 33 33 32 32 33 33 33 33 33 34 34 34 35 35 36 37 38 38 39 40 42 42 42 42 42 42 42 41 41 41 41 40 39 38 38 37 36 36 37 39 40 40 41 41 40 40 40 40 39 38 37 36 35 33 30 28 29 31 31 32 33 34 34 33 32
34 34 34 33 33 32 31 31 31 31 31 31 31 31 31 32 32 32 33 33 33 33 32 32 33 33 34 34 34 34 35 35 36 37 37 37 37 37 38 39 40 40 39 39 39 39 39 39 38 38 37 37 36 35 35 35 34 34 35 37 38 38 39 39 39 39 39 39 39 38 37 37 36 34 32 30 30 31 32 33 34 34 34 34 33
35 34 33 32 31 31 30 29 29 29 29 29 30 31 31 32 32 32 32 32 32 32 33 33 33 34 34 34 34 35 35 36 36 37 36 35 34 34 35 36 37 37 37 38 38 38 38 36 35 35 35 35 35 34 34 34 35 34 35 35 36 36 36 37 38 39 39 39 39 38 38 37 35 34 32 32 32 33 33 34 34 34 34 34 33
34 32 31 30 29 29 28 28 28 29 30 30 31 31 32 31 31 31 31 31 32 33 33 34 33 34 34 35 35 35 35 35 34 34 33 32 32 33 34 34 34 34 35 35 36 35 35 34 33 34 35 36 36 36 36 36 36 35 35 36 36 36 36 36 37 38 39 38 38 38 37 36 35 34 33 32 33 34 34 34 35 34 34 33 32
32 31 30 29 28 28 28 29 29 29 30 30 30 30 30 30 30 31 31 32 33 33 33 33 33 34 34 35 34 33 32 31 30 30 30 30 30 31 31 31 30 30 30 30 30 31 31 31 32 33 35 36 36 36 36 36 36 35 35 36 37 37 36 36 37 37 38 39 39 38 37 36 35 34 33 33 34 35 35 35 35 34 34 33 32
31 31 30 29 28 28 28 28 28 28 28 28 28 29 29 30 30 31 32 32 33 33 33 34 34 34 33 32 30 29 28 28 27 27 27 27 27 28 28 27 26 26 26 26 27 27 28 29 30 31 31 32 32 33 33 34 35 35 35 36 37 37 36 36 35 36 37 38 37 35 34 33 33 32 33 33 33 34 34 34 34 34 34 33 32
30 30 29 28 27 27 27 27 27 27 28 28 29 29 30 30 30 31 31 32 33 34 34 33 32 31 30 28 27 27 26 26 25 24 24 23 23 24 25 25 25 25 26 26 27 27 28 28 29 29 30 31 31 32 33 33 34 34 35 35 35 35 35 34 34 34 34 33 31 29 29 30 30 31 31 32 32 33 33 34 34 34 33 32 31
27 26 25 25 25 26 27 28 28 29 29 29 30 30 31 31 31 31 32 33 33 33 32 30 28 27 26 26 25 25 25 24 23 22 21 21 22 23 24 25 26 26 26 27 28 28 29 29 30 31 31 32 33 33 33 33 33 33 33 33 33 33 32 32 31 31 31 30 29 29 29 29 29 30 31 31 32 32 33 33 33 33 32 31 30
28 26 24 23 24 25 27 28 29 30 29 29 30 30 31 32 32 32 32 32 32 30 29 27 25 25 25 25 24 24 23 22 21 21 21 22 23 24 25 26 26 27 27 28 29 29 29 30 31 32 32 33 33 33 34 34 34 33 33 33 33 32 32 31 30 30 30 29 29 29 29 29 29 30 31 31 32 32 32 32 32 31 31 30 30
29 27 25 24 24 25 26 28 29 31 31 31 31 31 31 32 31 31 31 30 29 27 26 25 24 24 24 24 24 23 22 22 22 22 23 24 24 25 26 26 27 28 29 30 30 30 30 30 31 32 32 33 33 33 33 34 34 34 33 33 32 32 31 31 30 30 30 30 29 28 28 28 29 30 30 30 30 30 30 30 30 30 30 31 31
26 26 26 27 27 27 27 28 29 31 31 32 32 31 31 30 30 29 28 27 26 25 25 24 24 24 23 23 23 22 22 23 23 24 24 25 26 27 27 28 29 30 31 31 32 32 32 32 32 33 33 33 34 34 34 34 34 33 33 32 31 31 31 30 30 29 29 29 29 28 27 27 27 27 28 28 28 28 28 29 29 30 30 31 31
Wind_Direction
241 246 250 252 253 254 256 258 263 266 270 275 280 285 289 292 291 289 287 283 279 276 273 272 271 268 264 261 262 261 258 253 250 252 257 261 264 266 267 270 275 282 288 292 295 299 301 303 306 309 312 315 317 318 319 319 320 324 327 328 328 328 330 331 330 329 328 327 327 327 327 327 327 328 329 331 331 332 332 333 333 333 333 333 334
242 246 249 252 254 257 259 261 263 265 269 275 280 284 288 292 292 291 289 284 279 276 276 275 272 266 262 262 263 261 257 253 253 257 263 266 268 269 269 271 276 281 286 290 295 298 300 301 304 308 312 314 315 317 318 318 318 321 325 327 327 327 328 329 329 329 328 328 328 327 327 327 327 327 328 329 329 330 331 331 332 332 332 333 333
243 246 249 253 255 258 261 261 262 264 268 275 280 283 286 290 292 292 291 287 283 280 278 275 270 264 262 264 264 261 257 255 259 264 269 271 272 272 271 273 276 280 284 290 295 297 298 300 303 307 311 313 315 316 317 317 316 318 322 325 326 326 327 327 328 329 329 330 330 329 329 328 328 328 327 327 327 328 329 330 331 332 332 332 332
243 246 250 253 255 258 260 260 260 262 267 273 279 282 284 288 291 292 291 289 287 283 278 273 267 263 262 263 261 259 257 260 266 271 274 276 276 274 273 274 276 279 284 288 293 296 297 299 302 306 308 311 313 314 314 315 315 314 318 322 324 324 325 325 325 326 328 329 330 331 331 331 330 329 327 326 326 326 327 328 330 331 332 331 330
244 247 250 253 256 258 257 258 259 259 264 272 277 280 282 285 288 289 290 289 287 282 275 269 264 262 262 260 259 258 259 264 270 274 277 279 278 276 274 275 276 280 284 287 291 294 296 298 300 302 305 307 310 312 312 313 313 312 314 318 321 322 323 323 323 323 325 326 328 329 330 331 331 330 329 327 326 325 325 326 328 331 331 329 330
245 247 250 252 255 257 256 256 257 258 262 268 274 278 280 282 284 285 286 287 285 281 275 268 265 263 261 260 259 260 263 268 273 277 280 281 280 278 277 278 279 281 284 286 289 291 294 296 297 299 302 304 307 310 310 310 310 310 310 312 316 319 320 321 321 321 321 323 325 327 329 330 329 328 328 328 326 325 324 325 326 328 328 328 329
245 245 247 250 253 254 255 256 257 258 261 266 272 276 277 277 278 279 281 283 284 284 279 273 268 264 263 262 262 264 268 272 276 280 282 283 283 283 282 282 282 282 284 285 287 289 291 292 294 296 299 301 304 307 308 307 308 308 308 308 311 314 317 318 318 318 319 320 322 324 326 328 328 326 326 326 326 326 325 325 324 325 326 327 328
244 243 244 247 250 253 255 257 259 260 261 265 270 272 273 272 272 274 277 281 285 285 281 274 269 267 266 266 267 269 271 274 277 280 282 284 284 285 284 284 283 283 284 284 285 287 288 290 292 294 295 297 300 303 305 305 305 306 306 306 307 310 313 315 316 316 316 317 319 320 323 326 327 326 325 324 325 326 325 324 324 324 324 326 327
241 242 244 247 250 253 256 260 262 261 262 264 266 268 268 267 267 270 274 278 281 280 277 275 273 273 272 272 272 273 274 276 278 280 282 284 284 284 284 284 283 283 282 283 284 285 286 288 290 292 292 294 297 299 302 303 303 303 304 304 305 306 309 312 314 314 314 315 317 318 321 324 325 325 324 323 324 325 325 325 324 323 325 327 328
240 242 246 249 252 255 259 263 263 262 263 264 264 265 263 260 262 265 269 273 274 274 274 273 273 274 275 276 276 277 278 279 281 282 283 284 284 283 283 283 283 282 282 282 283 283 285 287 288 289 290 291 293 295 298 299 300 301 301 302 303 304 306 309 312 313 313 314 316 318 320 321 323 324 324 323 323 323 325 324 323 324 328 329 328
239 244 249 252 255 258 260 262 261 261 263 263 263 262 257 254 257 261 264 267 269 270 272 271 272 272 273 275 276 278 280 282 283 283 284 284 284 283 283 282 281 281 281 282 282 282 285 287 289 289 289 289 290 292 294 296 297 298 298 299 301 303 305 308 310 311 312 314 316 317 318 318 320 322 324 324 323 321 322 322 324 328 331 329 326
240 245 251 255 258 259 258 259 259 260 261 261 260 257 252 249 253 258 261 263 266 269 271 271 273 273 273 274 275 277 279 279 280 281 282 282 283 283 283 282 281 281 282 281 281 282 285 288 290 290 289 288 288 289 291 293 295 296 296 297 300 302 304 307 309 310 311 313 315 315 316 316 317 320 322 322 320 319 319 322 326 330 330 328 327
242 248 253 257 258 257 256 256 257 257 257 257 254 251 248 247 250 256 260 263 266 268 269 271 272 273 274 274 275 276 278 279 280 281 282 283 283 283 283 282 281 283 283 283 282 283 287 291 293 294 291 287 286 287 288 291 293 294 295 297 300 302 304 306 308 309 310 312 313 314 315 316 317 319 320 320 318 318 319 323 328 330 329 328 328
245 251 255 258 257 255 254 253 252 253 253 253 250 249 248 248 251 257 261 263 265 267 269 271 271 272 273 274 276 278 279 281 283 284 285 285 285 286 285 285 286 287 288 288 286 286 289 293 296 299 296 291 289 287 287 290 293 294 295 297 299 301 303 306 307 308 309 311 312 312 314 316 317 318 319 319 318 318 320 324 328 330 329 329 329
247 252 254 255 253 252 251 248 248 250 251 250 249 250 251 252 254 259 262 263 265 267 270 271 272 273 274 275 278 280 281 283 284 286 288 289 291 293 291 290 292 292 293 294 292 289 288 292 298 302 300 297 293 287 284 291 295 295 296 297 297 299 303 305 306 307 308 309 310 311 313 314 316 318 320 319 318 318 320 324 328 330 330 329 330
247 249 250 250 249 250 250 249 250 251 252 252 252 254 255 255 257 260 261 262 264 267 269 272 273 274 276 277 278 278 281 285 287 289 291 293 297 301 300 296 295 295 295 296 294 290 286 290 299 304 301 299 294 284 285 294 296 295 297 296 296 299 302 304 306 307 307 308 308 310 312 314 317 319 320 319 318 318 321 325 328 329 329 329 332
245 247 248 248 248 251 253 254 256 258 257 257 258 259 259 258 258 259 260 262 264 268 271 273 274 275 275 276 275 276 281 287 288 290 293 294 297 303 306 304 301 298 297 296 293 290 287 290 297 299 297 296 292 285 289 295 294 294 295 295 297 300 302 304 307 307 308 309 310 312 314 315 317 319 318 319 319 319 321 324 326 328 328 330 333
245 248 249 249 250 254 257 261 264 266 266 265 265 264 263 261 259 259 261 263 265 269 271 272 273 273 273 273 275 278 283 287 289 292 295 296 296 299 302 302 300 299 299 298 294 289 286 287 291 292 292 292 290 287 291 293 292 292 293 294 296 299 301 304 306 308 310 311 311 313 314 314 316 318 318 319 318 318 319 322 324 326 329 331 332
247 249 250 251 255 259 263 265 265 266 270 271 269 267 266 264 262 262 263 264 265 268 269 271 272 273 274 276 279 283 286 288 291 295 296 295 294 295 296 298 297 295 296 296 294 289 285 286 289 291 290 288 285 287 290 292 292 293 293 294 296 298 301 303 304 306 307 308 310 312 312 312 315 318 319 318 316 316 318 320 322 325 328 330 331
248 250 252 256 260 264 268 268 264 264 270 272 268 267 269 268 265 264 263 263 265 267 270 272 273 274 276 279 281 284 287 288 290 292 292 292 292 292 294 296 295 294 294 293 292 291 291 292 293 293 290 286 283 286 290 293 294 294 294 294 295 298 300 302 303 304 306 309 311 311 310 311 315 317 318 316 314 315 317 320 322 323 326 330 330
250 253 256 259 262 266 270 270 267 268 273 272 269 269 271 268 265 264 264 265 267 268 270 271 273 275 278 281 284 286 288 288 289 290 289 289 289 291 292 294 293 293 293 292 292 293 294 293 292 292 290 287 287 290 292 294 295 294 293 293 294 296 299 301 303 304 306 309 310 309 309 311 314 316 316 314 312 313 316 319 321 322 324 328 329
254 257 258 261 265 268 272 273 273 273 273 271 270 270 269 266 265 265 266 267 267 268 270 272 274 278 281 284 287 290 290 289 289 289 289 289 290 290 291 292 292 292 291 291 293 294 293 291 290 290 290 290 292 294 295 295 294 293 292 293 294 295 298 300 302 303 305 307 308 307 308 310 312 314 314 312 310 310 314 317 320 322 323 326 327
257 259 261 263 266 269 270 270 269 268 266 265 266 267 266 266 266 266 266 267 268 270 272 274 277 281 284 287 289 289 290 290 289 288 289 290 291 291 291 291 291 291 291 293 294 293 290 289 289 288 290 292 293 293 294 293 293 293 294 295 296 297 298 299 301 302 303 304 305 306 307 308 309 311 312 310 307 308 311 315 318 320 322 324 326
257 260 263 265 265 264 263 261 259 259 259 260 262 264 266 267 267 267 268 269 271 273 275 278 281 283 285 287 287 287 288 288 286 286 288 290 289 289 289 290 291 292 294 294 293 290 289 288 288 289 290 291 290 290 290 291 293 295 297 298 299 299 298 299 301 302 303 304 305 304 304 305 307 309 309 308 306 305 308 312 315 318 320 322 323
258 261 264 263 261 259 257 256 255 255 257 259 262 264 265 267 268 269 270 271 273 276 278 281 283 284 285 286 286 286 286 285 286 288 289 287 286 286 287 290 293 294 293 292 289 286 285 285 286 288 288 288 289 291 292 293 295 297 298 299 301 301 300 301 303 305 306 308 307 304 301 301 305 307 308 307 305 303 305 309 313 315 318 320 321
258 259 259 257 256 255 254 254 254 255 256 259 261 263 266 268 269 271 272 274 276 278 280 281 282 283 284 285 285 286 285 285 286 287 284 283 284 286 289 292 293 292 290 287 284 283 282 282 282 284 286 289 292 294 294 295 296 296 296 297 298 299 300 300 301 305 308 310 309 305 301 301 304 306 307 307 305 303 303 307 311 312 315 317 317
248 248 249 250 250 251 251 251 253 254 256 259 261 264 267 269 271 273 276 278 279 280 281 282 282 283 284 285 286 286 285 283 280 276 275 279 284 287 289 291 291 289 287 285 283 283 284 283 283 285 289 293 294 294 294 295 295 295 295 295 294 293 293 294 298 304 309 310 308 305 302 302 305 308 308 307 305 302 301 305 307 309 312 314 314
239 241 244 246 246 247 249 252 254 256 259 262 264 267 269 272 274 277 279 280 281 281 282 282 283 284 285 286 286 286 285 283 281 278 278 281 286 288 289 289 287 286 285 285 286 286 287 287 287 289 291 293 293 294 295 295 295 296 297 297 296 293 291 292 297 303 307 308 308 306 303 302 306 308 307 304 302 300 300 302 304 307 311 312 311
239 242 244 246 247 248 250 253 256 259 262 264 267 269 272 274 277 278 279 280 281 281 282 284 285 286 286 286 286 285 285 284 284 284 285 287 289 290 289 287 286 286 287 287 288 289 290 289 290 290 291 292 293 294 295 295 296 298 298 299 299 297 293 293 296 299 301 304 308 309 306 305 306 307 305 302 299 298 298 299 302 306 308 309 309
242 245 247 248 249 251 253 255 257 260 263 267 270 273 275 276 277 277 278 279 281 282 284 285 286 287 287 287 286 286 286 285 286 287 288 289 290 289 287 287 287 287 288 288 289 290 291 290 291 291 292 293 294 295 296 297 298 299 299 300 300 299 296 293 293 294 297 301 306 309 308 306 306 305 303 300 296 294 295 298 301 303 305 306 307
246 248 250 252 254 256 257 260 262 265 268 270 272 273 274 275 276 277 278 280 282 284 285 286 287 287 287 287 288 287 287 286 287 288 290 290 289 288 288 289 288 289 290 290 291 291 291 291 292 293 293 294 295 296 297 298 298 299 300 300 300 299 298 295 293 295 298 301 304 305 306 305 305 303 301 298 293 291 294 297 299 300 302 304 306
251 253 255 257 259 261 263 266 269 271 272 272 272 273 274 276 277 279 281 282 283 284 285 286 287 287 286 287 288 288 288 287 287 288 289 289 288 287 288 289 289 290 292 292 292 292 293 293 293 293 294 295 295 296 297 297 297 298 299 299 299 298 296 295 294 296 299 301 302 303 304 304 304 302 300 296 292 289 292 295 296 297 300 303 304
255 257 259 262 263 266 269 271 272 273 274 275 276 277 277 278 279 280 281 281 281 283 284 285 286 287 287 288 288 289 288 287 287 288 287 287 286 287 288 290 291 292 293 293 293 293 293 293 293 293 294 295 296 296 297 297 297 296 297 297 298 297 296 295 295 296 298 299 301 303 303 304 303 301 298 295 291 288 290 293 295 297 299 302 303
261 263 265 268 270 272 273 274 275 276 277 277 279 280 279 279 279 279 279 279 281 283 285 286 287 288 287 287 288 288 287 287 287 287 287 286 287 289 290 292 293 293 293 293 293 293 293 293 294 294 294 295 296 296 297 297 296 296 296 295 296 296 296 296 296 296 296 296 298 301 303 303 302 300 298 295 291 288 289 291 294 296 299 301 302
263 265 267 270 272 273 274 276 277 278 279 280 281 281 279 279 279 278 279 281 282 284 286 287 288 287 286 285 286 286 286 286 287 287 286 287 288 290 291 292 292 293 293 293 293 293 293 293 294 294 294 295 295 295 296 296 296 296 295 295 295 295 295 295 295 293 293 294 297 300 301 302 302 301 299 296 291 288 288 290 293 296 298 300 300
266 268 270 272 273 275 277 278 278 280 280 280 279 279 279 279 280 280 281 282 283 284 286 287 286 285 284 284 284 284 285 286 286 286 286 287 288 289 291 291 292 293 293 292 292 292 293 293 293 294 295 295 295 295 296 296 297 296 296 296 296 295 295 294 292 290 291 294 297 299 300 300 301 300 298 295 291 287 287 289 292 295 297 299 299
271 272 273 274 275 277 279 280 280 279 277 275 276 278 279 280 281 281 282 283 284 285 286 285 284 283 283 283 284 284 285 286 286 287 287 287 288 290 291 291 291 291 291 290 291 292 293 294 295 295 296 296 296 296 296 296 297 296 296 297 296 295 294 292 289 288 291 295 297 297 298 299 300 298 295 292 289 287 288 290 292 294 296 296 296
272 273 274 274 274 274 275 275 276 275 273 274 277 280 280 281 282 283 284 285 286 286 285 283 282 282 283 284 285 286 287 287 287 288 289 289 290 291 291 291 291 291 290 291 292 293 294 295 296 296 296 296 296 295 295 295 295 296 295 296 295 294 292 289 288 290 293 294 293 293 295 297 297 294 291 288 287 287 288 291 292 293 294 294 294
272 273 274 274 274 273 273 274 275 274 273 275 278 279 280 282 284 284 285 285 284 284 284 284 283 284 284 285 286 287 287 288 288 289 290 290 291 291 292 292 293 293 293 294 294 295 296 296 296 296 295 295 294 294 294 295 295 295 295 295 295 293 292 291 291 291 291 290 289 289 292 294 294 289 285 283 284 285 287 289 290 291 292 292 292
272 272 273 273 274 274 275 276 277 276 276 277 278 279 281 282 282 282 282 282 282 283 283 284 284 285 285 287 287 288 288 288 289 290 290 291 292 293 294 294 294 294 294 295 296 297 297 297 297 296 296 295 295 294 294 295 295 296 297 296 295 294 293 293 292 289 287 286 287 288 290 292 291 286 281 280 282 283 285 286 288 289 290 291 292
271 272 274 275 276 276 277 277 277 277 278 278 279 279 279 279 278 279 279 280 281 281 282 283 284 285 286 288 288 289 289 290 290 291 291 292 294 294 294 294 294 294 295 296 297 298 298 298 298 297 297 298 297 296 296 297 297 298 299 298 296 296 295 294 291 288 286 286 287 288 288 289 288 284 278 276 277 280 282 284 285 287 288 290 291
272 274 275 278 279 279 278 277 277 276 276 276 276 276 276 276 276 277 278 279 280 281 282 283 285 286 287 288 289 290 290 291 292 293 293 294 295 294 294 294 294 296 297 298 298 298 298 298 299 299 300 301 300 299 299 300 299 298 298 297 297 298 298 295 292 288 287 287 287 286 286 285 284 280 276 273 274 277 280 282 284 286 288 290 291
274 275 276 278 278 278 278 276 275 274 274 274 273 273 274 274 275 276 277 279 280 281 283 284 285 287 288 289 290 291 292 292 293 294 295 295 296 295 295 296 298 299 299 299 298 298 299 300 302 304 304 304 304 302 301 300 299 298 298 298 299 300 300 299 296 292 289 288 287 286 285 283 281 277 274 273 275 277 279 281 283 285 288 290 291
276 276 275 274 273 273 272 272 271 271 271 271 272 272 273 274 275 276 278 279 280 281 282 284 285 286 288 289 291 292 293 293 294 294 296 297 297 297 298 300 302 302 302 302 302 303 305 306 307 307 306 304 303 302 300 299 299 298 298 299 300 301 301 301 300 297 293 291 289 288 287 285 282 278 276 275 277 279 281 282 284 286 287 289 290
276 276 274 272 271 270 269 269 269 269 269 270 271 272 274 275 276 277 278 279 280 281 283 284 286 287 288 290 291 292 292 293 294 296 298 299 299 300 302 304 306 308 309 311 313 314 315 313 310 307 305 303 303 303 302 301 300 299 298 298 297 297 297 298 298 298 297 295 292 290 288 285 282 280 279 278 279 281 282 282 284 285 287 288 288
275 274 274 273 273 272 271 271 271 271 271 272 273 274 275 276 278 279 281 282 283 284 285 286 288 289 289 290 290 291 292 294 296 298 299 300 301 303 306 310 313 316 319 321 322 323 322 319 314 311 309 308 308 308 308 306 304 302 299 297 296 295 295 295 296 298 299 298 294 290 287 286 284 283 282 282 282 283 283 283 283 285 286 287 288
272 271 271 272 273 273 274 274 274 274 274 275 276 277 278 279 280 282 283 284 284 286 287 288 288 288 288 288 289 290 293 295 296 298 300 301 303 306 310 314 318 320 322 322 322 322 321 319 317 316 315 315 314 313 311 309 307 304 301 298 297 296 295 295 295 296 299 300 298 295 292 290 289 288 287 286 285 284 284 284 284 285 286 287 287
272 271 270 270 271 272 273 273 273 274 275 276 278 279 280 280 281 282 282 283 284 285 286 286 286 286 286 287 289 291 292 294 296 297 299 301 304 307 310 313 316 317 318 318 317 317 318 317 317 316 315 314 312 310 309 309 308 307 305 303 301 299 297 296 296 297 298 300 300 298 297 295 294 292 290 287 286 286 286 285 285 286 286 287 286
273 275 274 272 272 272 273 274 275 275 275 276 277 278 279 280 281 281 282 283 283 283 283 282 282 282 284 286 288 290 292 294 296 297 299 301 303 306 308 310 311 313 313 313 313 313 314 315 315 314 313 312 310 309 308 308 308 307 306 305 304 302 300 299 298 298 298 298 298 298 298 297 296 294 291 288 287 286 286 286 287 287 287 287 286
271 274 275 275 274 273 274 276 277 278 278 279 279 280 280 281 282 282 282 282 281 280 279 279 280 282 284 286 288 290 292 293 295 296 297 299 301 302 304 306 307 309 309 310 310 311 311 312 313 313 313 312 311 310 310 310 310 309 309 308 307 305 303 300 297 296 296 296 297 297 297 297 296 294 291 288 287 286 287 287 287 287 286 286 284
270 272 273 273 272 272 271 272 273 275 277 279 280 281 281 281 281 281 280 278 277 276 277 278 279 282 284 286 288 291 293 294 295 296 297 298 299 300 302 303 305 305 306 307 308 309 310 311 311 311 311 310 310 310 311 311 311 311 311 310 309 307 305 302 299 296 295 294 295 296 297 297 297 296 295 294 294 293 291 289 287 286 286 286 285
Height
5788 5788 5790 5790 5790 5791 5792 5793 5794 5794 5794 5794 5794 5794 5794 5794 5794 5793 5794 5794 5794 5794 5795 5795 5795 5795 5795 5795 5795 5795 5796 5796 5796 5797 5797 5797 5797 5797 5797 5796 5796 5796 5795 5795 5794 5793 5791 5790 5789 5788 5786 5785 5783 5781 5779 5776 5774 5771 5769 5766 5764 5761 5759 5756 5754 5751 5749 5746 5743 5741 5738 5735 5732 5729 5725 5721 5717 5714 5710 5706 5702 5698 5693 5689 5685
5785 5785 5787 5787 5787 5788 5789 5790 5791 5791 5792 5792 5792 5792 5792 5792 5792 5792 5792 5792 5792 5793 5793 5793 5792 5793 5793 5793 5793 5793 5794 5794 5794 5795 5795 5795 5795 5795 5794 5794 5794 5793 5793 5792 5791 5790 5789 5788 5786 5785 5783 5782 5780 5778 5776 5774 5771 5769 5766 5763 5761 5759 5756 5754 5751 5749 5746 5743 5741 5738 5735 5733 5730 5726 5723 5719 5715 5711 5707 5704 5700 5695 5691 5686 5682
5781 5783 5784 5784 5785 5785 5787 5787 5788 5789 5789 5790 5790 5790 5790 5790 5790 5790 5790 5789 5790 5790 5790 5790 5790 5790 5790 5791 5791 5791 5792 5792 5792 5793 5793 5793 5793 5793 5792 5792 5791 5791 5790 5789 5789 5787 5786 5785 5783 5782 5781 5779 5777 5775 5773 5771 5768 5766 5763 5761 5759 5756 5754 5751 5749 5746 5743 5741 5738 5735 5732 5730 5727 5724 5720 5716 5712 5708 5705 5701 5697 5692 5688 5683 5679
5779 5780 5781 5781 5782 5783 5784 5785 5786 5786 5787 5787 5787 5787 5788 5788 5788 5787 5787 5787 5787 5787 5787 5787 5787 5788 5788 5788 5789 5789 5790 5790 5790 5791 5791 5791 5791 5790 5789 5789 5788 5788 5787 5787 5786 5785 5783 5782 5781 5779 5778 5776 5774 5772 5770 5768 5766 5763 5761 5758 5756 5753 5751 5748 5746 5743 5741 5738 5735 5733 5730 5727 5724 5721 5717 5713 5709 5705 5702 5698 5694 5690 5684 5680 5676
5776 5777 5778 5778 5779 5780 5781 5782 5783 5784 5785 5785 5785 5785 5785 5786 5786 5785 5785 5785 5784 5784 5784 5784 5785 5785 5785 5786 5787 5787 5787 5788 5788 5788 5788 5788 5788 5787 5786 5786 5785 5785 5784 5784 5783 5782 5780 5779 5777 5776 5774 5773 5771 5769 5767 5765 5762 5760 5758 5756 5753 5751 5748 5746 5743 5741 5738 5735 5733 5730 5727 5724 5721 5718 5715 5711 5707 5703 5698 5695 5691 5687 5682 5677 5672
5774 5775 5775 5776 5776 5777 5779 5780 5781 5782 5782 5783 5783 5782 5783 5783 5783 5783 5782 5782 5782 5781 5781 5782 5782 5783 5783 5784 5784 5785 5785 5786 5786 5786 5785 5785 5785 5784 5783 5783 5782 5782 5781 5780 5780 5778 5777 5776 5774 5773 5771 5769 5768 5766 5764 5762 5759 5757 5755 5753 5751 5748 5746 5743 5741 5738 5735 5733 5730 5727 5724 5721 5718 5715 5711 5708 5705 5701 5697 5692 5688 5684 5681 5676 5670
5771 5772 5772 5773 5774 5775 5776 5777 5778 5779 5780 5780 5780 5780 5780 5780 5780 5780 5780 5779 5779 5779 5780 5780 5780 5781 5781 5782 5782 5782 5783 5783 5783 5783 5783 5782 5782 5781 5780 5780 5779 5778 5778 5777 5776 5775 5774 5772 5770 5769 5767 5766 5764 5762 5760 5758 5756 5754 5752 5750 5747 5745 5743 5740 5738 5735 5732 5730 5727 5724 5721 5718 5715 5712 5709 5705 5701 5698 5694 5690 5686 5682 5678 5674 5669
5768 5769 5769 5770 5772 5773 5774 5775 5776 5777 5777 5778 5778 5778 5778 5778 5777 5777 5777 5777 5777 5777 5778 5778 5778 5779 5779 5780 5780 5780 5780 5780 5780 5779 5779 5779 5778 5778 5777 5777 5776 5775 5774 5773 5772 5771 5769 5768 5767 5765 5763 5762 5760 5759 5757 5755 5753 5750 5748 5746 5744 5742 5739 5737 5734 5732 5729 5727 5724 5721 5718 5715 5712 5708 5705 5702 5698 5694 5691 5687 5684 5680 5675 5671 5667
5765 5765 5767 5768 5769 5770 5771 5772 5773 5774 5774 5775 5775 5775 5775 5775 5775 5775 5775 5775 5775 5775 5775 5776 5776 5777 5777 5777 5777 5777 5777 5777 5777 5776 5776 5776 5775 5774 5773 5773 5772 5771 5770 5769 5768 5767 5765 5764 5763 5761 5759 5758 5757 5755 5753 5751 5749 5747 5744 5742 5740 5738 5736 5734 5731 5729 5726 5723 5721 5718 5715 5712 5709 5705 5702 5698 5695 5691 5688 5684 5680 5677 5673 5668 5663
5762 5763 5764 5765 5766 5768 5769 5770 5770 5771 5771 5772 5772 5772 5772 5772 5772 5772 5773 5773 5773 5773 5773 5773 5774 5774 5774 5775 5774 5774 5774 5774 5773 5773 5772 5772 5771 5770 5769 5769 5768 5767 5766 5765 5764 5762 5760 5759 5759 5757 5755 5754 5752 5751 5749 5747 5745 5743 5741 5738 5736 5734 5732 5730 5728 5725 5723 5720 5717 5714 5712 5709 5705 5702 5698 5695 5691 5688 5684 5681 5677 5674 5670 5665 5660
5759 5760 5761 5762 5764 5765 5766 5767 5768 5768 5768 5769 5769 5769 5769 5770 5770 5770 5770 5770 5770 5771 5771 5771 5771 5771 5772 5772 5771 5771 5770 5770 5770 5769 5768 5768 5767 5766 5765 5765 5763 5763 5761 5760 5759 5757 5756 5755 5754 5752 5751 5749 5747 5746 5744 5742 5741 5739 5736 5734 5732 5730 5728 5726 5724 5722 5719 5717 5714 5711 5708 5705 5702 5698 5694 5691 5688 5684 5681 5678 5674 5670 5666 5663 5659
5756 5757 5758 5760 5761 5763 5764 5764 5765 5765 5765 5765 5766 5766 5766 5767 5767 5767 5767 5768 5768 5768 5768 5768 5768 5768 5769 5768 5768 5767 5766 5766 5765 5765 5764 5764 5763 5762 5761 5760 5759 5758 5757 5755 5754 5752 5751 5751 5749 5747 5745 5744 5742 5741 5739 5738 5736 5734 5732 5730 5728 5726 5724 5723 5721 5718 5716 5713 5710 5707 5704 5701 5698 5694 5691 5687 5684 5681 5678 5674 5670 5666 5662 5659 5655
5752 5754 5756 5757 5758 5760 5760 5761 5761 5762 5762 5762 5763 5763 5764 5764 5764 5765 5765 5765 5765 5765 5765 5765 5765 5765 5765 5765 5764 5763 5762 5761 5761 5761 5760 5759 5758 5758 5757 5756 5755 5754 5752 5750 5749 5748 5747 5746 5744 5742 5740 5738 5737 5736 5734 5733 5732 5730 5728 5726 5724 5722 5720 5718 5716 5714 5712 5709 5706 5703 5700 5697 5694 5690 5687 5684 5681 5678 5674 5670 5666 5663 5659 5655 5651
5750 5752 5753 5754 5756 5757 5757 5758 5758 5758 5759 5759 5760 5761 5761 5762 5762 5762 5762 5762 5762 5762 5762 5762 5762 5762 5761 5761 5760 5759 5758 5758 5758 5757 5756 5755 5754 5753 5752 5751 5750 5749 5747 5745 5744 5743 5742 5741 5739 5737 5735 5732 5731 5730 5730 5728 5727 5725 5723 5722 5720 5718 5716 5714 5712 5710 5707 5704 5701 5699 5696 5693 5690 5687 5683 5680 5677 5674 5671 5667 5663 5660 5655 5651 5647
5747 5749 5750 5752 5753 5754 5754 5755 5755 5755 5756 5756 5757 5758 5758 5759 5759 5759 5759 5759 5759 5759 5759 5758 5758 5758 5758 5758 5757 5756 5755 5754 5754 5753 5751 5750 5750 5748 5747 5746 5745 5744 5742 5741 5739 5738 5737 5736 5734 5732 5731 5728 5726 5726 5725 5724 5722 5720 5719 5717 5715 5714 5712 5709 5707 5705 5702 5700 5697 5694 5691 5688 5686 5683 5679 5676 5673 5670 5667 5663 5660 5656 5652 5648 5644
5744 5746 5748 5749 5750 5750 5751 5752 5752 5752 5753 5754 5754 5755 5755 5756 5756 5756 5756 5756 5755 5755 5755 5755 5755 5754 5754 5754 5754 5752 5751 5750 5749 5748 5747 5747 5746 5744 5743 5741 5741 5739 5738 5736 5734 5733 5732 5731 5729 5728 5727 5725 5723 5722 5721 5719 5717 5715 5714 5712 5710 5709 5707 5705 5703 5700 5698 5695 5692 5689 5687 5684 5681 5678 5675 5672 5669 5666 5663 5659 5656 5653 5650 5646 5642
5741 5743 5745 5746 5747 5747 5747 5748 5749 5749 5750 5750 5751 5751 5752 5752 5753 5753 5752 5752 5752 5752 5751 5751 5751 5751 5751 5751 5750 5749 5748 5747 5745 5744 5744 5743 5742 5740 5739 5737 5736 5735 5733 5731 5729 5728 5727 5727 5725 5724 5722 5720 5719 5718 5716 5714 5712 5710 5709 5707 5705 5704 5702 5700 5698 5696 5693 5690 5688 5685 5682 5679 5676 5673 5670 5668 5665 5662 5659 5656 5653 5650 5647 5643 5639
5738 5740 5742 5743 5743 5744 5744 5745 5745 5746 5746 5747 5747 5747 5748 5748 5749 5749 5748 5748 5748 5748 5748 5747 5747 5747 5747 5746 5745 5745 5745 5743 5741 5740 5740 5739 5738 5737 5736 5734 5733 5731 5730 5728 5726 5724 5724 5723 5721 5719 5717 5715 5714 5713 5711 5709 5707 5705 5704 5702 5700 5699 5697 5695 5693 5691 5689 5686 5683 5681 5678 5675 5671 5669 5666 5663 5661 5659 5656 5653 5649 5646 5643 5640 5637
5734 5737 5739 5739 5740 5741 5741 5741 5741 5741 5742 5742 5743 5743 5744 5745 5745 5745 5745 5745 5744 5744 5744 5743 5743 5743 5742 5742 5742 5741 5741 5739 5737 5736 5735 5734 5734 5733 5731 5730 5729 5727 5726 5724 5722 5721 5720 5719 5717 5714 5712 5710 5709 5708 5706 5704 5703 5701 5699 5697 5696 5694 5692 5690 5688 5686 5684 5681 5679 5676 5673 5670 5667 5664 5661 5659 5657 5654 5652 5649 5646 5643 5640 5636 5634
5731 5733 5735 5736 5737 5737 5737 5736 5736 5737 5738 5738 5739 5739 5740 5741 5741 5741 5741 5741 5741 5740 5740 5740 5739 5739 5738 5738 5738 5738 5737 5735 5733 5732 5731 5730 5729 5728 5727 5725 5724 5722 5721 5720 5718 5717 5715 5714 5712 5709 5707 5705 5705 5704 5702 5701 5699 5696 5695 5693 5691 5690 5688 5686 5684 5682 5679 5677 5674 5671 5669 5666 5663 5660 5657 5655 5652 5650 5647 5645 5642 5639 5637 5633 5630
5728 5730 5732 5734 5734 5734 5733 5732 5733 5733 5734 5735 5735 5736 5736 5737 5737 5737 5737 5737 5737 5736 5736 5736 5735 5735 5735 5734 5734 5733 5733 5731 5729 5727 5726 5725 5723 5722 5722 5720 5719 5718 5717 5716 5714 5713 5711 5709 5707 5705 5703 5701 5701 5700 5698 5696 5694 5692 5690 5689 5687 5685 5683 5681 5679 5677 5675 5673 5670 5667 5664 5662 5659 5656 5653 5650 5648 5646 5643 5641 5638 5636 5633 5630 5628
5724 5727 5729 5730 5730 5730 5729 5729 5729 5730 5730 5731 5732 5732 5732 5732 5733 5733 5733 5733 5733 5732 5732 5732 5731 5731 5730 5730 5729 5728 5727 5726 5724 5722 5720 5719 5718 5717 5716 5715 5714 5713 5712 5711 5710 5709 5707 5704 5703 5701 5699 5698 5696 5695 5693 5691 5689 5687 5686 5684 5682 5680 5678 5676 5675 5673 5671 5668 5666 5663 5660 5658 5655 5652 5649 5646 5644 5642 5639 5637 5634 5632 5629 5627 5624
5721 5723 5725 5726 5726 5726 5726 5726 5726 5727 5727 5728 5728 5728 5728 5729 5729 5729 5729 5729 5729 5729 5728 5728 5728 5727 5726 5725 5725 5723 5722 5720 5718 5717 5715 5714 5712 5711 5711 5710 5709 5708 5708 5707 5706 5704 5702 5700 5698 5696 5695 5693 5692 5690 5688 5686 5684 5683 5681 5680 5678 5676 5673 5671 5670 5668 5666 5664 5662 5659 5656 5654 5651 5648 5645 5643 5640 5638 5636 5634 5631 5629 5626 5624 5621
5717 5719 5720 5721 5722 5722 5722 5722 5723 5723 5724 5724 5724 5725 5725 5725 5725 5725 5725 5725 5725 5725 5724 5724 5723 5722 5721 5720 5720 5718 5717 5715 5713 5712 5711 5709 5707 5706 5706 5705 5705 5704 5703 5702 5701 5700 5698 5696 5693 5692 5690 5689 5687 5685 5683 5681 5680 5678 5677 5675 5673 5671 5669 5667 5665 5663 5661 5659 5657 5655 5652 5649 5647 5644 5642 5639 5636 5635 5633 5630 5628 5626 5623 5621 5619
5713 5715 5716 5716 5717 5717 5718 5718 5719 5719 5720 5720 5721 5721 5721 5721 5721 5721 5721 5721 5721 5720 5720 5719 5719 5717 5716 5715 5714 5713 5712 5711 5709 5707 5705 5703 5702 5701 5701 5700 5700 5699 5698 5697 5695 5694 5693 5691 5689 5687 5685 5684 5682 5680 5678 5677 5675 5674 5672 5670 5668 5666 5665 5663 5661 5659 5657 5655 5653 5650 5648 5645 5642 5640 5638 5635 5633 5631 5629 5627 5625 5623 5620 5618 5616
5709 5710 5711 5712 5712 5713 5714 5714 5715 5715 5716 5717 5717 5717 5717 5717 5717 5717 5717 5717 5716 5716 5715 5714 5714 5712 5711 5710 5709 5708 5707 5706 5705 5703 5701 5698 5696 5696 5696 5696 5695 5695 5694 5692 5690 5689 5688 5687 5685 5683 5680 5679 5678 5676 5674 5672 5671 5669 5667 5666 5664 5662 5660 5659 5656 5654 5652 5650 5648 5646 5643 5641 5638 5636 5634 5631 5629 5627 5626 5623 5621 5620 5618 5616 5613
5705 5706 5707 5707 5708 5709 5710 5710 5711 5712 5712 5713 5713 5713 5713 5713 5713 5713 5713 5712 5712 5711 5710 5709 5708 5707 5706 5705 5704 5703 5702 5701 5700 5699 5696 5694 5693 5693 5693 5692 5691 5689 5688 5687 5685 5684 5683 5682 5681 5678 5676 5674 5672 5671 5670 5668 5666 5664 5663 5661 5659 5657 5655 5653 5651 5649 5648 5646 5643 5641 5639 5637 5634 5632 5629 5627 5625 5624 5622 5620 5618 5616 5614 5613 5611
5701 5702 5703 5704 5705 5706 5706 5707 5707 5708 5708 5708 5709 5709 5709 5709 5709 5708 5708 5707 5706 5705 5705 5704 5703 5702 5701 5700 5699 5698 5697 5695 5694 5693 5691 5690 5689 5689 5689 5687 5686 5684 5683 5681 5680 5679 5679 5677 5675 5673 5671 5669 5668 5666 5664 5663 5661 5659 5657 5655 5653 5651 5650 5648 5646 5645 5643 5641 5639 5636 5634 5632 5630 5628 5625 5623 5621 5620 5618 5616 5614 5613 5611 5609 5607
5697 5699 5700 5701 5702 5702 5703 5703 5703 5704 5704 5704 5704 5704 5704 5704 5704 5703 5703 5702 5700 5700 5699 5698 5697 5697 5696 5695 5694 5693 5692 5691 5689 5688 5687 5686 5685 5685 5684 5682 5681 5679 5678 5677 5676 5675 5673 5672 5670 5668 5667 5665 5663 5661 5659 5657 5656 5654 5652 5650 5648 5646 5644 5643 5641 5640 5639 5637 5634 5632 5630 5628 5626 5623 5621 5619 5617 5615 5614 5612 5611 5609 5607 5606 5604
5694 5695 5696 5697 5697 5698 5699 5699 5700 5700 5700 5700 5700 5700 5700 5699 5698 5698 5697 5696 5695 5694 5694 5693 5692 5692 5691 5690 5689 5689 5687 5686 5684 5683 5682 5682 5681 5680 5679 5678 5676 5674 5673 5672 5671 5670 5669 5667 5665 5663 5662 5660 5658 5656 5654 5653 5651 5649 5647 5645 5643 5641 5639 5638 5636 5635 5634 5632 5630 5628 5625 5623 5621 5619 5616 5614 5613 5611 5610 5608 5607 5605 5604 5602 5600
5689 5691 5692 5692 5693 5694 5695 5695 5695 5696 5696 5696 5696 5695 5694 5694 5693 5692 5692 5691 5690 5690 5689 5688 5688 5687 5686 5685 5685 5684 5682 5681 5679 5678 5677 5677 5677 5675 5674 5673 5671 5670 5669 5668 5667 5665 5664 5662 5660 5658 5657 5655 5653 5651 5650 5648 5646 5644 5643 5641 5639 5637 5635 5633 5632 5630 5629 5627 5625 5623 5621 5619 5617 5614 5612 5610 5608 5607 5606 5604 5603 5602 5600 5599 5597
5686 5687 5688 5688 5689 5690 5690 5690 5690 5691 5691 5691 5691 5690 5689 5689 5688 5687 5687 5686 5686 5685 5684 5683 5683 5682 5681 5680 5680 5679 5677 5676 5674 5673 5673 5672 5671 5670 5669 5667 5666 5665 5664 5663 5661 5660 5658 5657 5655 5654 5652 5650 5648 5646 5645 5643 5642 5640 5638 5636 5634 5632 5630 5629 5627 5625 5624 5622 5620 5618 5616 5614 5612 5610 5608 5606 5604 5603 5602 5600 5599 5598 5597 5595 5593
5682 5683 5684 5684 5685 5685 5686 5686 5685 5685 5686 5686 5686 5685 5685 5684 5683 5683 5682 5682 5681 5680 5679 5679 5678 5677 5676 5675 5675 5674 5673 5671 5670 5669 5668 5667 5666 5665 5664 5662 5661 5660 5659 5658 5656 5655 5653 5652 5651 5649 5647 5645 5643 5642 5640 5638 5637 5635 5633 5631 5629 5627 5625 5624 5622 5620 5618 5616 5615 5613 5611 5609 5607 5605 5603 5601 5599 5598 5598 5596 5595 5594 5593 5592 5590
5679 5679 5680 5680 5680 5681 5681 5681 5680 5680 5681 5681 5681 5680 5680 5679 5678 5678 5677 5677 5676 5675 5675 5675 5674 5673 5672 5671 5670 5669 5668 5667 5665 5664 5663 5662 5661 5660 5659 5658 5656 5655 5654 5653 5651 5650 5648 5647 5645 5644 5642 5640 5638 5636 5635 5633 5632 5630 5628 5626 5624 5622 5620 5618 5617 5615 5613 5611 5609 5607 5606 5604 5601 5600 5598 5596 5595 5594 5593 5592 5591 5590 5589 5588 5586
5675 5675 5675 5676 5676 5676 5676 5676 5676 5676 5676 5676 5675 5675 5675 5675 5674 5673 5673 5672 5671 5671 5671 5670 5670 5669 5668 5667 5665 5664 5663 5662 5660 5659 5658 5657 5656 5655 5654 5653 5652 5650 5649 5648 5646 5645 5643 5642 5640 5639 5637 5635 5633 5631 5630 5628 5626 5624 5622 5620 5618 5616 5614 5613 5611 5610 5608 5606 5604 5602 5600 5598 5596 5595 5593 5592 5591 5590 5589 5588 5587 5586 5585 5584 5582
5670 5671 5671 5671 5671 5671 5672 5671 5671 5671 5671 5671 5671 5670 5670 5670 5669 5669 5669 5668 5668 5667 5666 5666 5665 5664 5663 5662 5660 5659 5658 5657 5655 5654 5653 5653 5652 5651 5649 5648 5647 5645 5644 5642 5641 5639 5638 5636 5635 5633 5632 5630 5628 5626 5624 5623 5621 5619 5617 5615 5613 5611 5609 5608 5606 5604 5602 5600 5599 5597 5595 5593 5591 5590 5588 5587 5586 5585 5584 5583 5582 5582 5581 5579 5578
5666 5666 5667 5667 5667 5667 5667 5666 5666 5666 5666 5666 5666 5666 5665 5665 5664 5664 5664 5664 5663 5663 5662 5661 5660 5658 5657 5656 5655 5654 5653 5652 5651 5650 5649 5648 5647 5646 5645 5643 5642 5640 5638 5637 5635 5634 5632 5631 5630 5628 5626 5624 5623 5621 5619 5617 5615 5613 5611 5609 5607 5605 5604 5602 5600 5598 5596 5595 5593 5591 5589 5588 5586 5584 5583 5583 5582 5581 5579 5578 5578 5577 5576 5575 5574
5661 5662 5662 5662 5662 5662 5662 5662 5662 5662 5662 5662 5661 5661 5660 5660 5659 5659 5659 5658 5658 5657 5656 5655 5655 5653 5652 5652 5651 5650 5649 5647 5646 5645 5644 5643 5642 5642 5640 5638 5636 5635 5633 5631 5630 5629 5627 5625 5624 5622 5620 5618 5616 5615 5613 5611 5609 5607 5605 5603 5601 5599 5598 5596 5594 5592 5591 5589 5588 5586 5584 5582 5581 5579 5578 5578 5577 5576 5575 5574 5573 5572 5571 5570 5569
5657 5657 5657 5657 5658 5657 5657 5657 5657 5657 5657 5657 5656 5656 5655 5655 5654 5654 5653 5653 5652 5652 5651 5650 5649 5649 5648 5647 5646 5646 5644 5643 5641 5640 5639 5637 5637 5636 5635 5633 5631 5629 5627 5625 5624 5623 5621 5619 5618 5616 5614 5612 5610 5608 5606 5605 5603 5601 5599 5597 5595 5594 5592 5590 5588 5587 5585 5584 5582 5580 5579 5577 5576 5574 5573 5573 5572 5571 5570 5569 5568 5567 5566 5566 5565
5652 5652 5652 5653 5653 5653 5653 5652 5652 5652 5652 5652 5651 5651 5650 5650 5649 5649 5648 5648 5647 5647 5647 5646 5645 5644 5643 5642 5642 5641 5640 5638 5637 5636 5634 5632 5631 5631 5630 5628 5626 5624 5621 5619 5618 5617 5615 5613 5611 5609 5607 5605 5603 5602 5600 5599 5597 5595 5593 5592 5590 5588 5586 5585 5583 5581 5580 5578 5577 5575 5573 5572 5571 5569 5568 5567 5567 5566 5565 5564 5563 5562 5561 5561 5560
5647 5648 5648 5648 5648 5649 5649 5648 5647 5647 5646 5646 5646 5645 5645 5645 5645 5644 5644 5643 5643 5643 5643 5642 5640 5639 5639 5638 5637 5636 5635 5634 5632 5631 5629 5628 5626 5625 5624 5622 5620 5618 5616 5614 5612 5611 5609 5607 5605 5603 5601 5599 5598 5596 5594 5593 5592 5590 5588 5586 5584 5582 5581 5579 5578 5576 5575 5573 5571 5570 5568 5567 5566 5564 5563 5562 5561 5560 5560 5559 5558 5557 5556 5556 5555
5643 5643 5643 5643 5643 5643 5644 5643 5643 5642 5642 5641 5641 5641 5641 5641 5640 5640 5640 5639 5639 5638 5638 5637 5636 5635 5634 5633 5632 5631 5630 5628 5627 5625 5624 5622 5621 5620 5618 5616 5614 5612 5611 5609 5607 5605 5603 5601 5599 5597 5596 5594 5592 5591 5589 5587 5586 5585 5583 5581 5579 5578 5576 5574 5572 5571 5569 5568 5566 5565 5563 5562 5560 5559 5558 5557 5556 5555 5555 5554 5553 5552 5552 5551 5550
5638 5639 5639 5639 5638 5638 5638 5638 5638 5637 5637 5637 5636 5636 5636 5636 5636 5635 5635 5635 5634 5634 5633 5633 5632 5630 5629 5628 5627 5626 5625 5623 5622 5620 5618 5617 5615 5614 5612 5611 5609 5608 5606 5603 5601 5599 5597 5595 5594 5592 5590 5588 5587 5585 5584 5582 5581 5579 5578 5576 5574 5573 5571 5569 5567 5565 5564 5562 5561 5559 5558 5556 5555 5554 5553 5552 5551 5550 5550 5549 5549 5548 5547 5546 5545
5633 5634 5634 5634 5634 5634 5634 5633 5633 5633 5632 5632 5632 5631 5631 5631 5631 5631 5631 5630 5630 5629 5628 5628 5627 5626 5624 5623 5622 5621 5619 5618 5616 5615 5613 5611 5609 5608 5607 5606 5604 5602 5600 5598 5596 5593 5592 5590 5588 5587 5585 5584 5582 5580 5579 5577 5576 5574 5573 5571 5569 5568 5566 5564 5562 5560 5559 5557 5556 5554 5553 5552 5550 5549 5548 5547 5546 5546 5545 5545 5544 5543 5543 5542 5541
5628 5628 5629 5629 5629 5629 5629 5629 5629 5628 5628 5628 5628 5627 5627 5627 5627 5626 5626 5625 5625 5624 5623 5623 5622 5621 5619 5618 5617 5615 5614 5613 5611 5610 5608 5607 5604 5602 5601 5601 5600 5598 5595 5593 5591 5589 5587 5585 5584 5582 5581 5579 5577 5575 5574 5572 5570 5569 5567 5566 5564 5563 5561 5559 5557 5556 5554 5552 5550 5549 5548 5547 5546 5545 5544 5543 5542 5541 5541 5540 5540 5539 5538 5537 5536
5623 5623 5624 5624 5624 5624 5624 5624 5624 5624 5624 5624 5623 5623 5622 5622 5622 5621 5621 5620 5619 5619 5618 5618 5617 5615 5614 5613 5611 5610 5609 5608 5607 5605 5604 5602 5600 5598 5596 5596 5595 5593 5591 5589 5587 5585 5583 5582 5580 5578 5576 5575 5573 5571 5569 5567 5565 5563 5562 5561 5559 5557 5556 5554 5553 5551 5549 5547 5545 5544 5543 5542 5541 5540 5539 5538 5538 5537 5536 5536 5535 5534 5533 5532 5532
5619 5619 5620 5620 5620 5620 5619 5619 5619 5619 5619 5619 5618 5618 5618 5618 5617 5616 5616 5615 5614 5614 5613 5613 5612 5610 5609 5608 5607 5606 5604 5603 5602 5601 5600 5598 5596 5594 5593 5591 5590 5589 5587 5586 5584 5582 5580 5578 5576 5574 5572 5570 5568 5566 5565 5563 5561 5559 5557 5556 5554 5553 5551 5549 5548 5546 5545 5543 5541 5540 5539 5538 5537 5536 5535 5534 5533 5532 5532 5531 5530 5529 5529 5528 5527
5614 5615 5616 5617 5617 5616 5615 5615 5614 5614 5614 5614 5614 5614 5613 5613 5613 5612 5611 5610 5610 5609 5608 5607 5606 5605 5604 5603 5602 5601 5600 5599 5598 5597 5596 5595 5593 5591 5589 5588 5586 5585 5584 5582 5581 5579 5577 5575 5573 5570 5568 5566 5564 5563 5561 5559 5557 5555 5553 5551 5549 5548 5546 5545 5543 5542 5540 5539 5538 5536 5535 5534 5533 5532 5531 5530 5529 5528 5527 5526 5526 5525 5524 5523 5522
5610 5611 5612 5613 5613 5612 5611 5610 5610 5610 5610 5610 5610 5610 5609 5609 5608 5607 5606 5605 5605 5604 5603 5603 5602 5601 5599 5599 5598 5597 5596 5595 5594 5593 5592 5591 5589 5588 5586 5584 5583 5581 5580 5579 5577 5575 5573 5571 5569 5567 5565 5563 5561 5559 5557 5555 5553 5551 5549 5547 5545 5544 5542 5540 5539 5537 5536 5535 5534 5533 5531 5530 5529 5528 5527 5526 5525 5524 5523 5522 5521 5520 5520 5519 5518
5607 5608 5608 5608 5608 5608 5607 5606 5605 5605 5605 5605 5605 5605 5605 5604 5603 5602 5601 5600 5600 5599 5598 5598 5597 5596 5595 5594 5593 5592 5591 5590 5590 5589 5588 5586 5585 5584 5583 5581 5579 5577 5576 5574 5572 5571 5569 5567 5565 5563 5561 5559 5557 5554 5552 5550 5548 5546 5544 5543 5541 5539 5537 5536 5534 5533 5532 5531 5529 5528 5527 5526 5525 5524 5523 5522 5521 5520 5519 5518 5517 5516 5515 5514 5514
5604 5604 5604 5604 5604 5604 5604 5603 5602 5602 5602 5601 5600 5600 5600 5599 5598 5597 5597 5596 5595 5594 5594 5593 5593 5592 5591 5590 5589 5588 5587 5586 5585 5584 5584 5582 5581 5580 5579 5577 5575 5574 5572 5570 5568 5566 5564 5562 5560 5559 5556 5554 5552 5550 5548 5546 5544 5542 5540 5538 5536 5535 5533 5531 5530 5528 5527 5526 5525 5524 5523 5522 5521 5520 5519 5518 5517 5516 5515 5514 5513 5512 5511 5510 5509